Mount Holly, NJ

12:11 AM EDT on July 21, 2017 (GMT -0400)
South Jersey Regional

Weather History for KVAY - September, 2013

Change the Weather History Date:

Sunday, September 1, 2013

  Actual Average (KPNE) Record (KPNE)
Temperature  
Mean Temperature 80 °F -  
Max Temperature 89 °F 79 °F 96 °F (2010)
Min Temperature 71 °F 61 °F 57 °F (2002)
Cooling Degree Days 14    
Growing Degree Days 30 (Base 50)    
Moisture  
Dew Point 72 °F    
Average Humidity 80    
Maximum Humidity 100    
Minimum Humidity 57    
Precipitation  
Precipitation 0.00 in - - ()
Sea Level Pressure  
Sea Level Pressure 29.83 in    
Wind  
Wind Speed 1 mph (South)    
Max Wind Speed 6 mph    
Max Gust Speed -    
Visibility 9 miles    
Events      
Averages and records for this station are not official NWS values.
T = Trace of Precipitation, MM = Missing Value Source: NWS Daily Summary

Daily Weather History Graph

Daily Weather History Graph

Search for Another Location

Airport or City:

Trip Planner

Search our weather history database for the weather conditions in past years. The results will help you decide how hot, cold, wet, or windy it might be!

Date:

Astronomy

Sep. 01, 2013 Rise Set
Actual Time 6:27 AM EDT 7:30 PM EDT
Civil Twilight 5:59 AM EDT 7:58 PM EDT
Nautical Twilight 5:26 AM EDT 8:31 PM EDT
Astronomical Twilight 4:52 AM EDT 9:05 PM EDT
Moon 2:47 AM EDT (9/1) 5:06 PM EDT (9/1)
Length of Visible Light 13h 58m
Length of Day
13h 03m
Waning Crescent, 14% of the Moon is Illuminated
Sep 1
Waning Crescent
Sep 5
New
Sep 12
First Quarter
Sep 19
Full
Sep 26
Last Quarter

Hourly Weather History & Observations

Time (EDT) Temp. Heat Index Dew Point Humidity Pressure Visibility Wind Dir Wind Speed Gust Speed Precip Events Conditions
12:54 AM 75.0 °F - 71.1 °F 87% 29.84 in 10.0 mi Calm Calm - N/A   Clear
1:54 AM 73.9 °F - 71.1 °F 91% 29.82 in 10.0 mi Calm Calm - N/A   Clear
2:54 AM 73.0 °F - 70.0 °F 90% 29.82 in 10.0 mi Calm Calm - N/A   Clear
3:54 AM 73.0 °F - 70.0 °F 90% 29.81 in 10.0 mi Calm Calm - N/A   Scattered Clouds
4:54 AM 72.0 °F - 70.0 °F 93% 29.82 in 10.0 mi Calm Calm - N/A   Clear
5:54 AM 72.0 °F - 70.0 °F 93% 29.83 in 7.0 mi Calm Calm - N/A   Clear
6:42 AM 71.6 °F - 69.8 °F 94% 29.85 in 4.0 mi Calm Calm - N/A   Scattered Clouds
7:34 AM 71.6 °F - 71.6 °F 100% 29.85 in 5.0 mi Calm Calm - N/A   Mostly Cloudy
7:54 AM 73.0 °F - 71.1 °F 93% 29.85 in 6.0 mi Calm Calm - N/A   Overcast
8:32 AM 75.2 °F - 73.4 °F 94% 29.85 in 8.0 mi Variable 3.5 mph - N/A   Partly Cloudy
8:54 AM 75.9 °F - 73.0 °F 91% 29.86 in 10.0 mi Calm Calm - N/A   Scattered Clouds
9:01 AM 75.2 °F - 73.4 °F 94% 29.86 in 10.0 mi Calm Calm - N/A   Mostly Cloudy
9:45 AM 78.8 °F - 71.6 °F 78% 29.86 in 10.0 mi SW 4.6 mph - N/A   Overcast
9:54 AM 79.0 °F - 72.0 °F 79% 29.86 in 10.0 mi West 4.6 mph - N/A   Overcast
10:42 AM 80.6 °F 84.6 °F 71.6 °F 74% 29.85 in 10.0 mi Variable 3.5 mph - N/A   Scattered Clouds
10:54 AM 82.0 °F 87.4 °F 73.0 °F 74% 29.85 in 10.0 mi Variable 3.5 mph - N/A   Partly Cloudy
11:54 AM 84.0 °F 89.0 °F 71.1 °F 65% 29.85 in 10.0 mi South 3.5 mph - N/A   Mostly Cloudy
12:12 PM 82.4 °F 87.2 °F 71.6 °F 70% 29.84 in 10.0 mi Variable 3.5 mph - N/A   Mostly Cloudy
12:34 PM 84.2 °F 90.9 °F 73.4 °F 70% 29.84 in 10.0 mi Variable 3.5 mph - N/A   Mostly Cloudy
12:54 PM 84.9 °F 90.7 °F 72.0 °F 65% 29.83 in 10.0 mi Calm Calm - N/A   Partly Cloudy
1:54 PM 87.1 °F 92.8 °F 71.1 °F 59% 29.81 in 10.0 mi Variable 4.6 mph - N/A   Clear
2:54 PM 88.0 °F 93.8 °F 71.1 °F 57% 29.80 in 10.0 mi South 4.6 mph - N/A   Partly Cloudy
3:54 PM 88.0 °F 94.7 °F 72.0 °F 59% 29.78 in 10.0 mi SW 3.5 mph - N/A   Scattered Clouds
4:54 PM 86.0 °F 91.5 °F 71.1 °F 61% 29.78 in 10.0 mi Variable 4.6 mph - N/A   Mostly Cloudy
5:54 PM 86.0 °F 92.2 °F 72.0 °F 63% 29.78 in 10.0 mi Calm Calm - N/A   Clear
6:54 PM 82.0 °F 87.4 °F 73.0 °F 74% 29.79 in 10.0 mi SE 3.5 mph - N/A   Partly Cloudy
7:54 PM 80.1 °F 83.8 °F 72.0 °F 76% 29.79 in 10.0 mi SE 5.8 mph - N/A   Clear
8:54 PM 78.1 °F - 72.0 °F 81% 29.81 in 10.0 mi Calm Calm - N/A   Clear
9:54 PM 75.9 °F - 72.0 °F 87% 29.82 in 10.0 mi SE 4.6 mph - N/A   Clear
10:54 PM 75.0 °F - 72.0 °F 90% 29.81 in 8.0 mi Variable 3.5 mph - N/A   Clear
11:54 PM 75.0 °F - 72.0 °F 90% 29.80 in 7.0 mi Calm Calm - N/A   Clear